Elefsis, Greece

7:34 AM EEST on May 27, 2018 (GMT +0300)
Elefsis Air Base

Weather History for LGEL - September, 2012

Change the Weather History Date:

Saturday, September 15, 2012

  Actual Average Record
Temperature  
Mean Temperature 77 °F -  
Max Temperature 86 °F 76 °F 95 °F (2011)
Min Temperature 68 °F 60 °F 62 °F (1999)
Cooling Degree Days 12    
Growing Degree Days 27 (Base 50)    
Moisture  
Dew Point 58 °F    
Average Humidity 56    
Maximum Humidity 78    
Minimum Humidity 37    
Precipitation  
Precipitation 0.00 in - - ()
Sea Level Pressure  
Sea Level Pressure 29.82 in    
Wind  
Wind Speed 7 mph ()    
Max Wind Speed 18 mph    
Max Gust Speed 30 mph    
Visibility 6.2 miles    
Events Rain , Thunderstorm    
Averages and records for this station are not official NWS values.
T = Trace of Precipitation, MM = Missing Value Source: Averaged Metar Reports

Daily Weather History Graph

Daily Weather History Graph

Search for Another Location

Airport or City:

Astronomy

Sep. 15, 2012 Rise Set
Actual Time 7:07 AM EEST 7:33 PM EEST
Civil Twilight 6:41 AM EEST 7:59 PM EEST
Nautical Twilight 6:10 AM EEST 8:30 PM EEST
Astronomical Twilight 5:38 AM EEST 9:02 PM EEST
Moon 6:17 AM EEST (9/15) 6:53 PM EEST (9/15)
Length of Visible Light 13h 18m
Length of Day
12h 25m
Waning Crescent, 1% of the Moon is Illuminated
Sep 15
Waning Crescent
Sep 16
New
Sep 22
First Quarter
Sep 30
Full
Oct 8
Last Quarter

Hourly Weather History & Observations

Time (EEST) Temp. Heat Index Dew Point Humidity Pressure Visibility Wind Dir Wind Speed Gust Speed Precip Events Conditions
12:50 AM 71.6 °F - 62.6 °F 73% 29.86 in 6.2 mi Variable 2.3 mph - N/A   Partly Cloudy
1:50 AM 69.8 °F - 62.6 °F 78% 29.80 in 6.2 mi Variable 3.5 mph - N/A   Partly Cloudy
2:50 AM 69.8 °F - 60.8 °F 73% 29.80 in 6.2 mi Variable 2.3 mph - N/A   Partly Cloudy
3:50 AM 69.8 °F - 62.6 °F 78% 29.80 in 6.2 mi Variable 3.5 mph - N/A   Partly Cloudy
4:50 AM 68.0 °F - 60.8 °F 78% 29.80 in 6.2 mi Variable 3.5 mph - N/A   Partly Cloudy
5:50 AM 69.8 °F - 60.8 °F 73% 29.80 in 6.2 mi Variable 2.3 mph - N/A   Partly Cloudy
6:20 AM 69.8 °F - 60.8 °F 73% 29.80 in 6.2 mi Variable 3.5 mph - N/A   Partly Cloudy
6:50 AM 69.8 °F - 60.8 °F 73% 29.83 in 6.2 mi Variable 3.5 mph - N/A   Mostly Cloudy
7:20 AM 69.8 °F - 60.8 °F 73% 29.83 in 6.2 mi Calm Calm - N/A   Partly Cloudy
7:50 AM 69.8 °F - 60.8 °F 73% 29.83 in 6.2 mi Calm Calm - N/A   Mostly Cloudy
8:20 AM 77.0 °F - 60.8 °F 57% 29.83 in 6.2 mi WNW 6.9 mph - N/A   Scattered Clouds
8:50 AM 78.8 °F - 60.8 °F 54% 29.83 in 6.2 mi NW 9.2 mph - N/A   Partly Cloudy
9:20 AM 80.6 °F 81.5 °F 60.8 °F 51% 29.83 in 6.2 mi NW 9.2 mph - N/A   Partly Cloudy
9:50 AM 82.4 °F 82.5 °F 59.0 °F 45% 29.80 in 6.2 mi NNW 6.9 mph - N/A   Scattered Clouds
10:20 AM 82.4 °F 82.5 °F 59.0 °F 45% 29.80 in 6.2 mi Calm Calm - N/A   Scattered Clouds
10:50 AM 86.0 °F 84.9 °F 57.2 °F 37% 29.80 in 6.2 mi Calm Calm - N/A   Scattered Clouds
11:20 AM 86.0 °F 84.9 °F 57.2 °F 37% 29.80 in 6.2 mi SW 6.9 mph - N/A   Scattered Clouds
11:50 AM 86.0 °F 85.4 °F 59.0 °F 40% 29.80 in 6.2 mi SSW 8.1 mph - N/A   Mostly Cloudy
12:20 PM 82.4 °F 82.5 °F 59.0 °F 45% 29.80 in 6.2 mi WNW 18.4 mph - N/A   Mostly Cloudy
12:50 PM 82.4 °F 82.5 °F 59.0 °F 45% 29.83 in 6.2 mi WNW 15.0 mph 29.9 mph N/A   Mostly Cloudy
1:20 PM 82.4 °F 82.0 °F 57.2 °F 42% 29.83 in 6.2 mi WNW 17.3 mph 28.8 mph N/A   Mostly Cloudy
1:50 PM 82.4 °F 82.0 °F 57.2 °F 42% 29.83 in 6.2 mi WNW 17.3 mph 28.8 mph N/A   Mostly Cloudy
2:20 PM 82.4 °F 82.0 °F 57.2 °F 42% 29.83 in 6.2 mi WNW 13.8 mph 25.3 mph N/A   Mostly Cloudy
2:50 PM 80.6 °F 80.8 °F 57.2 °F 45% 29.83 in 6.2 mi NNW 17.3 mph 28.8 mph N/A   Mostly Cloudy
3:20 PM 80.6 °F 80.8 °F 57.2 °F 45% 29.83 in 6.2 mi NW 13.8 mph 29.9 mph N/A   Mostly Cloudy
3:50 PM 80.6 °F 80.8 °F 57.2 °F 45% 29.83 in 6.2 mi NW 16.1 mph 27.6 mph N/A   Mostly Cloudy
4:20 PM 80.6 °F 80.8 °F 57.2 °F 45% 29.83 in 6.2 mi NW 13.8 mph 278.5 mph N/A   Mostly Cloudy
4:50 PM 77.0 °F - 57.2 °F 50% 29.80 in 6.2 mi NW 16.1 mph 27.6 mph N/A   Mostly Cloudy
5:20 PM 77.0 °F - 55.4 °F 47% 29.80 in 6.2 mi NW 18.4 mph - N/A   Mostly Cloudy
5:50 PM 77.0 °F - 53.6 °F 44% 29.80 in 6.2 mi NW 17.3 mph - N/A   Mostly Cloudy
6:20 PM 75.2 °F - 53.6 °F 47% 29.80 in 6.2 mi NW 16.1 mph - N/A   Mostly Cloudy
6:50 PM 75.2 °F - 53.6 °F 47% 29.83 in 6.2 mi NW 13.8 mph - N/A   Mostly Cloudy
7:20 PM 75.2 °F - 53.6 °F 47% 29.83 in 6.2 mi NW 11.5 mph - N/A   Mostly Cloudy
7:50 PM 71.6 °F - 57.2 °F 60% 29.83 in 6.2 mi NW 17.3 mph - N/A Rain , Thunderstorm Light Thunderstorms and Rain
8:20 PM 69.8 °F - 57.2 °F 64% 29.83 in 6.2 mi NW 6.9 mph - N/A Thunderstorm Thunderstorm
8:50 PM 69.8 °F - 55.4 °F 60% 29.86 in 6.2 mi NW 8.1 mph - N/A   Mostly Cloudy
9:20 PM 69.8 °F - 55.4 °F 60% 29.86 in 6.2 mi WNW 6.9 mph - N/A   Mostly Cloudy
9:50 PM 69.8 °F - 55.4 °F 60% 29.83 in 6.2 mi West 8.1 mph - N/A   Mostly Cloudy
10:20 PM 69.8 °F - 55.4 °F 60% 29.83 in 6.2 mi Variable 3.5 mph - N/A   Drizzle
10:50 PM 69.8 °F - 57.2 °F 64% 29.83 in 6.2 mi West 4.6 mph - N/A   Drizzle
11:20 PM 69.8 °F - 55.4 °F 60% 29.83 in 6.2 mi East 6.9 mph - N/A   Scattered Clouds
11:50 PM 71.6 °F - 55.4 °F 57% 29.80 in 6.2 mi WSW 15.0 mph - N/A   Scattered Clouds